Waarnemingen

Advertentie
Mijn weer
Maastricht, Nederland (6380): temperatuur & dauwpunt: 20.04.2017 06:00:00 - 26.04.2017 06:00:00 (CEST)Maastricht, Nederland (6380): temperatuur 5cm: 20.04.2017 06:00:00 - 26.04.2017 06:00:00 (CEST)Maastricht, Nederland (6380): windsnelheid & windstoten: 20.04.2017 06:00:00 - 26.04.2017 06:00:00 (CEST)Maastricht, Nederland (6380): windrichting: 20.04.2017 06:00:00 - 26.04.2017 06:00:00 (CEST)Maastricht, Nederland (6380): luchtdruk: 20.04.2017 06:00:00 - 26.04.2017 06:00:00 (CEST)Maastricht, Nederland (6380): zicht: 20.04.2017 06:00:00 - 26.04.2017 06:00:00 (CEST)Maastricht, Nederland (6380): neerslag: 20.04.2017 06:00:00 - 26.04.2017 06:00:00 (CEST)
Datum & Tijd tt [°C] td [°C] tt 5cm [°C] ff [km/u] ff [kn] fx [km/u] fx [kn] dd ppp [hPa] vv [km] rr [mm]
26.04.2017 06:00:00 -1,0 -2,0 -2,2 11 6 - - ZZW 1011,7 10 -
26.04.2017 05:00:00 0,2 -1,2 -0,7 13 7 18 10 ZZW 1011,9 10 0,0
26.04.2017 04:00:00 0,6 -1,1 -0,9 9 5 14 8 ZZW 1011,9 10 0,0
26.04.2017 03:00:00 -0,4 -2,2 -2,6 9 5 14 8 ZZW 1011,7 10 0,0
26.04.2017 02:00:00 1,8 -1,4 -2,0 8 4 11 6 ZZW 1011,6 10 0,0
26.04.2017 01:00:00 1,6 -1,0 -1,6 4 2 7 4 - 1011,6 10 0,0
26.04.2017 00:00:00 3,3 -1,3 -0,8 4 2 7 4 - 1011,6 10 0,0
25.04.2017 23:00:00 4,2 -1,7 0,8 5 3 14 8 NNW 1011,7 10 0,0
25.04.2017 22:00:00 5,4 -2,5 3,9 9 5 18 10 NW 1011,5 10 0,0
25.04.2017 21:00:00 6,1 -2,3 5,1 13 7 29 16 NW 1011,2 10 0,0
25.04.2017 20:00:00 7,8 -2,6 7,4 15 8 29 16 NW 1010,9 10 0,0
25.04.2017 19:00:00 7,7 0,5 7,7 11 6 14 8 ZZW 1010,8 10 0,0
25.04.2017 18:00:00 7,0 1,3 7,8 8 4 14 8 Z 1010,9 10 0,0
25.04.2017 17:00:00 6,7 2,1 7,4 9 5 14 8 Z 1010,9 10 0,0
25.04.2017 16:00:00 5,5 1,0 5,2 9 5 50 27 WNW 1011,2 10 0,1
25.04.2017 15:00:00 9,2 0,8 11,1 16 9 36 19 NW 1010,8 10 0,0
25.04.2017 14:00:00 6,9 1,5 7,8 16 9 36 19 W 1010,5 10 0,0
25.04.2017 13:00:00 6,6 0,5 7,1 18 10 40 21 W 1010,4 10 0,0
25.04.2017 12:00:00 7,2 -0,8 8,4 21 11 40 21 W 1009,9 10 0,0
25.04.2017 11:00:00 6,9 -0,3 7,3 22 12 36 19 W 1009,7 10 0,0
25.04.2017 10:00:00 6,3 -0,1 7,0 16 9 43 23 W 1009,5 10 0,0
25.04.2017 09:00:00 6,0 1,4 6,2 16 9 32 18 W 1009,0 10 0,0
25.04.2017 08:00:00 5,7 3,5 5,2 11 6 22 12 W 1008,3 10 0,0
25.04.2017 07:00:00 5,8 4,4 5,6 9 5 25 14 WNW 1007,9 10 0,0
25.04.2017 06:00:00 5,8 4,9 5,6 21 11 25 14 ZW 1007,5 10 0,3
25.04.2017 05:00:00 5,6 4,8 5,5 13 7 18 10 WZW 1007,4 10 0,5
25.04.2017 04:00:00 5,7 4,5 5,5 8 4 25 14 W 1007,4 10 0,3
25.04.2017 03:00:00 6,4 4,7 6,3 18 10 40 21 WNW 1007,5 9 0,0
25.04.2017 02:00:00 9,7 4,8 9,2 11 6 18 10 WZW 1007,0 10 0,0
25.04.2017 01:00:00 10,0 4,1 8,8 11 6 18 10 ZW 1007,4 10 0,0
25.04.2017 00:00:00 9,7 4,9 8,9 13 7 11 6 ZZW 1008,1 10 0,0
24.04.2017 23:00:00 10,6 4,3 9,7 8 4 14 8 W 1009,0 10 0,0
24.04.2017 22:00:00 11,2 3,8 9,7 9 5 18 10 WZW 1009,5 10 0,0
24.04.2017 21:00:00 12,1 3,6 11,2 9 5 22 12 WZW 1009,9 10 0,0
24.04.2017 20:00:00 12,9 2,9 12,1 11 6 22 12 W 1010,6 10 0,0
24.04.2017 19:00:00 13,6 1,8 12,9 11 6 22 12 WZW 1011,1 10 0,0
24.04.2017 18:00:00 13,9 1,7 14,2 15 8 29 16 W 1011,6 10 0,0
24.04.2017 17:00:00 14,1 2,5 14,7 16 9 29 16 WZW 1012,4 10 0,0
24.04.2017 16:00:00 13,9 1,7 14,7 22 12 32 18 WZW 1013,3 10 0,0
24.04.2017 15:00:00 14,4 2,1 16,1 15 8 36 19 WZW 1014,3 10 0,0
24.04.2017 14:00:00 14,5 2,9 17,0 21 11 32 18 ZW 1015,2 10 0,0
24.04.2017 13:00:00 13,7 2,0 16,2 22 12 36 19 ZW 1016,2 10 0,0
24.04.2017 12:00:00 12,7 2,3 13,9 22 12 29 16 ZW 1017,2 10 0,0
24.04.2017 11:00:00 11,2 1,2 13,0 21 11 32 18 ZZW 1017,9 10 0,0
24.04.2017 10:00:00 8,7 1,1 9,1 18 10 22 12 ZZW 1018,4 10 0,0
24.04.2017 09:00:00 6,4 1,0 6,5 21 11 22 12 ZZW 1019,3 10 0,0
24.04.2017 08:00:00 3,6 -0,2 2,9 21 11 25 14 ZZW 1019,6 10 0,0
24.04.2017 07:00:00 1,7 -1,0 0,6 13 7 18 10 Z 1019,5 10 0,0
24.04.2017 06:00:00 1,1 -1,3 -0,4 13 7 18 10 Z 1020,0 10 0,0
24.04.2017 05:00:00 0,7 -1,3 -1,3 13 7 14 8 Z 1020,7 10 0,0
24.04.2017 04:00:00 1,3 -1,1 -1,8 8 4 11 6 Z 1021,4 10 0,0
24.04.2017 03:00:00 1,5 -0,5 -2,6 5 3 7 4 Z 1021,9 10 0,0
24.04.2017 02:00:00 2,1 0,2 -2,6 8 4 7 4 ZZO 1022,7 10 0,0
24.04.2017 01:00:00 2,5 0,5 -2,1 8 4 7 4 Z 1023,6 10 0,0
24.04.2017 00:00:00 3,8 0,9 -1,7 5 3 4 2 ZZO 1024,1 10 0,0
23.04.2017 23:00:00 4,8 1,5 -0,5 4 2 7 4 - 1024,6 10 0,0
23.04.2017 22:00:00 6,3 1,8 2,5 2 1 7 4 - 1025,0 10 0,0
23.04.2017 21:00:00 7,9 1,7 6,5 5 3 11 6 NW 1025,0 10 0,0
23.04.2017 20:00:00 8,3 1,9 7,7 9 5 18 10 NNW 1025,2 10 0,0
23.04.2017 19:00:00 8,9 1,6 8,8 13 7 25 14 N 1025,4 10 0,0
23.04.2017 18:00:00 9,8 0,7 10,1 13 7 29 16 NNW 1025,3 10 0,0
23.04.2017 17:00:00 10,0 -0,8 10,4 8 4 18 10 NW 1025,6 10 0,0
23.04.2017 16:00:00 9,9 0,5 10,6 11 6 22 12 NNW 1026,0 10 0,0
23.04.2017 15:00:00 9,9 -0,5 11,9 11 6 22 12 NNW 1026,3 10 0,0
23.04.2017 14:00:00 9,9 -0,2 10,6 9 5 18 10 NW 1026,7 10 0,0
23.04.2017 13:00:00 8,6 -0,8 9,8 11 6 22 12 NNW 1027,1 10 0,0
23.04.2017 12:00:00 8,7 0,2 9,8 11 6 18 10 N 1027,4 10 0,0
23.04.2017 11:00:00 8,7 1,4 10,2 9 5 22 12 N 1027,2 10 0,0
23.04.2017 10:00:00 7,4 0,8 9,2 11 6 22 12 NNW 1027,2 10 0,0
23.04.2017 09:00:00 5,9 1,9 6,2 8 4 14 8 W 1027,2 10 0,0
23.04.2017 08:00:00 3,9 1,4 3,4 9 5 11 6 W 1026,9 10 0,0
23.04.2017 07:00:00 3,0 0,8 2,1 5 3 11 6 W 1026,5 10 0,0
23.04.2017 06:00:00 3,3 0,8 2,6 5 3 14 8 WNW 1026,2 10 0,0
23.04.2017 05:00:00 4,0 0,7 3,2 8 4 14 8 WNW 1026,2 10 0,0
23.04.2017 04:00:00 3,3 0,6 2,4 8 4 11 6 W 1026,2 10 0,0
23.04.2017 03:00:00 2,9 0,4 -0,1 5 3 11 6 WNW 1026,4 10 0,0
23.04.2017 02:00:00 4,2 0,9 3,1 11 6 18 10 NW 1026,7 10 0,0
23.04.2017 01:00:00 4,6 0,8 3,4 9 5 18 10 NW 1026,6 10 0,0
23.04.2017 00:00:00 5,7 0,6 4,9 13 7 25 14 NW 1026,7 10 0,0
22.04.2017 23:00:00 6,6 0,4 6,1 9 5 25 14 NW 1026,5 10 0,0
22.04.2017 22:00:00 7,2 -0,3 6,7 16 9 32 18 NW 1026,5 10 0,0
22.04.2017 21:00:00 7,9 -0,2 7,3 15 8 32 18 NNW 1026,1 10 0,0
22.04.2017 20:00:00 8,6 0,3 8,1 21 11 32 18 NNW 1025,8 10 0,0
22.04.2017 19:00:00 9,2 0,5 8,9 18 10 32 18 NNW 1025,7 10 0,0
22.04.2017 18:00:00 9,7 1,8 10,0 21 11 29 16 NW 1025,6 10 0,0
22.04.2017 17:00:00 9,1 2,1 9,1 21 11 32 18 NNW 1025,8 10 0,0
22.04.2017 16:00:00 10,0 1,3 10,1 22 12 40 21 NW 1025,8 36 0,0
22.04.2017 15:00:00 10,5 1,0 11,0 18 10 29 16 NNW 1026,0 10 0,0
22.04.2017 14:00:00 10,0 0,7 10,1 16 9 32 18 NNW 1026,4 10 0,0
22.04.2017 13:00:00 10,1 2,1 11,0 15 8 29 16 NNW 1026,8 10 0,0
22.04.2017 12:00:00 8,3 5,3 9,8 9 5 14 8 WZW 1027,2 10 0,0
22.04.2017 11:00:00 7,3 5,5 8,0 8 4 11 6 W 1027,4 10 0,0
22.04.2017 10:00:00 6,0 4,6 6,9 4 2 18 10 - 1027,3 10 0,3
22.04.2017 09:00:00 5,4 4,7 5,6 13 7 22 12 NNW 1027,2 6 0,2
22.04.2017 08:00:00 5,4 4,4 5,3 16 9 36 19 N 1026,6 10 0,4
22.04.2017 07:00:00 5,9 5,2 6,0 26 14 36 19 NNO 1026,0 10 0,2
22.04.2017 06:00:00 9,5 6,8 9,0 8 4 14 8 W 1024,9 10 0,0
22.04.2017 05:00:00 9,6 6,7 9,1 8 4 14 8 W 1025,1 10 0,0
22.04.2017 04:00:00 9,7 6,7 9,2 9 5 14 8 WZW 1025,4 10 0,0
22.04.2017 03:00:00 9,9 6,7 9,4 9 5 18 10 WZW 1026,0 10 0,0
22.04.2017 02:00:00 10,1 6,7 9,4 8 4 18 10 WZW 1026,4 10 0,0
22.04.2017 01:00:00 10,2 6,8 9,6 9 5 18 10 WZW 1026,8 10 0,0
22.04.2017 00:00:00 10,4 6,7 9,8 5 3 14 8 WZW 1027,6 10 0,0
21.04.2017 23:00:00 10,7 6,5 10,2 9 5 18 10 WNW 1027,9 10 0,0
21.04.2017 22:00:00 10,9 6,8 10,5 8 4 18 10 WNW 1028,1 10 0,0
21.04.2017 21:00:00 11,5 6,3 11,0 9 5 25 14 WNW 1028,1 10 0,0
21.04.2017 20:00:00 12,1 5,9 11,6 13 7 29 16 WNW 1028,1 10 0,0
21.04.2017 19:00:00 12,8 6,6 12,4 13 7 25 14 W 1028,2 10 0,0
21.04.2017 18:00:00 12,9 6,2 12,8 15 8 25 14 W 1028,4 10 0,0
21.04.2017 17:00:00 13,0 6,0 12,6 11 6 32 18 W 1028,7 10 0,0
21.04.2017 16:00:00 13,6 6,8 13,3 13 7 29 16 WZW 1029,1 10 0,0
21.04.2017 15:00:00 14,2 7,1 15,8 16 9 29 16 WZW 1029,7 10 0,0
21.04.2017 14:00:00 12,9 5,6 14,0 22 12 25 14 ZW 1030,5 10 0,0
21.04.2017 13:00:00 11,9 3,2 12,8 24 13 32 18 ZW 1031,1 10 0,0
21.04.2017 12:00:00 9,8 0,6 10,1 21 11 25 14 ZZW 1031,6 10 0,0
21.04.2017 11:00:00 8,6 0,5 9,1 21 11 22 12 ZZW 1032,0 10 0,0
21.04.2017 10:00:00 7,0 -0,9 7,1 16 9 29 16 ZZW 1032,0 10 0,0
21.04.2017 09:00:00 5,3 -1,1 5,2 16 9 22 12 ZZW 1032,0 10 0,0
21.04.2017 08:00:00 4,5 -1,1 4,3 16 9 25 14 ZZW 1032,1 10 0,0
21.04.2017 07:00:00 4,0 -2,0 3,8 21 11 22 12 ZZW 1031,9 10 0,0
21.04.2017 06:00:00 3,9 -2,3 3,8 16 9 22 12 ZZW 1032,0 10 0,0
21.04.2017 05:00:00 3,6 -1,9 3,3 15 8 22 12 ZZW 1032,4 10 0,0
21.04.2017 04:00:00 2,8 -2,0 1,9 13 7 18 10 ZZW 1032,7 10 0,0
21.04.2017 03:00:00 2,3 -1,7 0,7 11 6 14 8 ZZW 1033,0 10 0,0
21.04.2017 02:00:00 2,7 -2,5 0,3 11 6 11 6 ZZW 1033,4 10 0,0
21.04.2017 01:00:00 4,7 -2,8 0,7 9 5 11 6 ZZW 1033,7 10 0,0
21.04.2017 00:00:00 4,8 -2,4 0,6 8 4 7 4 ZZW 1034,0 10 0,0
20.04.2017 23:00:00 5,5 -2,5 1,0 5 3 7 4 ZW 1034,3 10 0,0
20.04.2017 22:00:00 7,4 -3,2 1,7 5 3 7 4 WZW 1034,4 10 0,0
20.04.2017 21:00:00 8,5 -3,0 4,1 0 0 14 8 N 1034,3 10 0,0
20.04.2017 20:00:00 9,6 -3,3 9,0 5 3 14 8 N 1034,2 10 0,0
20.04.2017 19:00:00 11,2 -3,7 12,7 4 2 11 6 - 1034,2 10 0,0
20.04.2017 18:00:00 11,4 -3,7 13,2 5 3 14 8 - 1034,4 10 0,0
20.04.2017 17:00:00 11,2 -3,6 13,7 5 3 14 8 - 1034,9 10 0,0
20.04.2017 16:00:00 10,9 -1,9 13,7 4 2 18 10 N 1035,5 10 0,0
20.04.2017 15:00:00 10,1 -3,5 12,8 8 4 18 10 WZW 1036,4 10 0,0
20.04.2017 14:00:00 9,6 -3,9 12,1 9 5 14 8 WZW 1036,9 10 0,0
20.04.2017 13:00:00 9,0 -3,2 11,9 5 3 14 8 - 1037,3 10 0,0
20.04.2017 12:00:00 7,8 -4,4 10,5 5 3 18 10 - 1037,7 10 0,0
20.04.2017 11:00:00 7,1 -4,0 9,8 5 3 22 12 ZO 1037,9 10 0,0
20.04.2017 10:00:00 5,7 -2,5 7,7 4 2 7 4 - 1038,0 10 0,0
20.04.2017 09:00:00 2,5 -2,4 2,6 5 3 11 6 ZZW 1038,1 10 0,0
20.04.2017 08:00:00 -0,1 -2,8 -1,6 8 4 11 6 ZZW 1037,7 10 0,0
20.04.2017 07:00:00 -2,5 -4,3 -7,0 5 3 4 2 Z 1037,4 9 0,0
20.04.2017 06:00:00 -2,4 -4,4 -7,2 4 2 4 2 Z 1037,1 10 0,0

tt = temperatuur
td = dauwpunt
tt 5cm = temperatuur 5cm
ff = windsnelheid
fx = windstoten
dd = windrichting
ppp = luchtdruk
vv = zicht
rr = neerslag

Weerstations in de omgeving